User: anonymous   Login
Location: ??????
(55.6500°N, 37.8000°E)
Time: 10:19:39
(UTC+00:00)
Language:

Cosmos 773 Rocket - Orbit

View from above orbital plane
View from above orbital plane
View from above satellite
View from above satellite

Ground track
Ground track

The orbit data is extracted from the following two-line orbital elements,

1 08344U 75094B   24164.89698237  .00000521  00000-0  17386-3 0  9999
2 08344  74.0561 100.5645 0020434  82.2154 278.1320 14.39862233552646
Epoch (UTC): 12 June 2024 21:31:39
Eccentricity: 0.0020434
inclination: 74.0561°
perigee height: 744 km
apogee height: 773 km
right ascension of ascending node: 100.5645°
argument of perigee: 82.2154°
revolutions per day: 14.39862233
mean anomaly at epoch: 278.1320°
orbit number at epoch: 55264

The dashed part of the orbit path shows where the satellite is in the earth's shadow,  

DLR